[[{"header":{"parameterUnit":"m.s-1","parameterCategory":1,"la1":30.2991,"la2":30.254,"lo1":-89.0895,"lo2":-89.0444,"dy":0.0017,"dx":0.0017,"nx":28,"ny":28,"refTime":"2025-12-31T09:00:00:Z","depth":0,"parameterNumber":2,"parameterNumberName":"U-component_of_WINDS"},"data":[0,0,0,0,0,0,0,0,0,0,0,0,0,0,0,0,0,0,0,0,0,0,0,0,0,0,0,0,0,0,0,0,0,0,0,0,0,0,0,0,0,0,0,0,0,0,0,0,0,0,0,0,0,0,0,0,0,0,3.9194,3.9196,0,3.9382,3.9384,3.9386,3.9368,3.9365,3.9362,3.936,3.9552,3.956,3.9567,0,0,0,0,0,0,0,0,0,0,0,0,0,3.8818,3.8825,3.9193,3.9196,3.9198,3.9381,3.9384,3.9386,3.9369,3.9365,3.9362,3.9358,3.955,3.9559,3.9568,0,0,0,0,0,0,0,0,0,0,0,0,0,3.8991,3.8827,3.9193,3.9211,3.9215,3.9381,3.9384,3.9387,3.9369,3.9365,3.9361,3.9357,3.9546,3.9558,3.9569,3.9729,0,0,3.9605,3.961,0,0,0,0,0,0,0,0,3.8981,3.9005,3.9206,3.921,3.9215,3.9347,3.9322,3.9502,3.937,3.9311,3.936,3.9354,3.9487,3.9504,3.9549,3.9738,3.9746,3.9606,3.9614,3.9619,3.9622,0,0,0,0,0,0,0,3.8969,3.8997,3.9268,3.9209,3.9214,3.921,3.923,3.9356,3.9421,3.9316,3.9315,3.9337,3.9489,3.9537,3.9553,3.9749,3.9606,3.9616,3.9624,3.9628,4.0077,4.0082,0,0,0,0,0,0,3.8953,3.8987,3.9262,3.9273,3.9085,3.922,3.9242,3.9309,3.942,3.9432,3.9341,3.9336,3.9519,3.9539,3.956,3.9752,3.9618,3.9629,3.9636,4.0072,4.0078,4.0084,0,0,0,0,0,0,3.8945,3.8978,3.9254,3.913,3.9165,3.9231,3.9306,3.9315,3.9363,3.9439,3.945,3.9378,3.9517,3.9543,3.9687,3.9758,3.9635,3.9645,4.0067,4.0074,4.0081,4.0139,0,0,0,0,0,0,3.8934,3.8975,3.9037,3.9132,3.9172,3.9379,3.9311,3.9322,3.9384,3.9379,3.9477,3.9489,3.9515,3.9669,3.9698,3.9772,3.9655,4.006,4.007,4.0079,4.0131,4.0148,4.0162,0,0,0,0,0,3.8921,3.9046,3.904,3.9073,3.925,3.9383,3.9406,3.9433,3.9389,3.9451,3.95,3.9486,3.9746,3.9684,3.9717,3.9795,4.0056,4.0067,4.0078,4.0124,4.0144,4.0161,0,0,0,0,0,0,3.8958,3.9059,3.9053,3.9212,3.9289,3.9379,3.9459,3.9454,3.9544,3.9536,3.9567,3.9589,3.9733,3.9779,3.9708,3.9955,3.9895,3.9913,3.9919,3.9939,3.9954,3.9939,3.9664,0,0,0,0,0,3.8985,3.9084,3.9167,3.93,3.9338,3.9392,3.9451,3.9465,3.9546,3.9578,3.9637,3.9716,3.9815,3.988,3.9976,4.0138,4.0158,4.0208,4.0224,4.0236,4.025,4.0338,4.036,4.012,4.012,4.0119,0,0,3.9041,3.9108,3.9169,3.9309,3.937,3.9471,3.9419,3.953,3.9605,3.9595,3.9733,3.978,3.987,4.0023,4.0093,4.0065,4.0322,4.025,4.0259,4.0267,4.0351,4.0374,4.0394,4.0127,4.0126,4.0125,0,0,3.9194,3.9256,3.9372,3.9434,3.9527,3.9562,3.959,3.9682,3.9712,3.9851,3.9845,3.9936,4.0107,4.017,4.0225,4.0402,4.0392,4.0433,4.0512,4.0597,4.0615,4.0632,4.0693,4.0715,4.0447,4.0448,4.0448,0,3.9252,3.9405,3.9433,3.9544,3.9604,3.96,3.9717,3.9776,3.9896,3.9938,3.9905,4.0119,4.0179,4.0346,4.0389,4.0434,4.0466,4.0421,4.0611,4.0628,4.0644,4.0703,4.0726,4.0452,4.0451,4.0451,4.045,0,3.947,3.9577,3.966,3.9774,3.9845,3.9959,4.0003,4.0071,4.0079,4.0117,4.0259,4.0331,4.044,4.0482,4.0491,4.065,4.0629,4.0604,4.0544,4.0671,4.0726,4.0749,4.0458,4.0456,4.0455,4.0454,0,0,3.9652,3.978,3.981,3.9861,3.9963,4.0046,4.0159,4.0265,4.0322,4.0405,4.05,4.0644,4.0621,4.0683,4.07,4.0775,4.0908,4.074,4.0742,4.0766,4.1084,4.1101,4.1127,4.0902,4.0907,4.091,4.1076,0,3.9814,4.0013,4.0041,4.0218,4.0315,4.0312,4.0411,4.0484,4.0522,4.061,4.0653,4.0754,4.0717,4.0754,4.0828,4.0876,4.0971,4.0865,4.0989,4.0993,4.0964,4.1156,4.1175,4.1328,4.1098,4.1102,4.1105,0,4.0029,4.0117,4.0303,4.039,4.0432,4.052,4.0619,4.0704,4.0786,4.0809,4.0878,4.0886,4.1002,4.0939,4.1099,4.1025,4.1079,4.111,4.1116,4.1127,4.1055,4.117,4.1378,4.14,4.114,4.1137,4.1134,0,4.014,4.0305,4.0437,4.0481,4.0587,4.0648,4.0695,4.0774,4.0835,4.0923,4.0963,4.1063,4.1117,4.1194,4.1227,4.1179,4.1385,4.1325,4.1406,4.1405,4.1447,4.1444,4.1664,4.1486,4.1485,4.1485,4.1484,0,4.0316,4.043,4.0487,4.0568,4.0695,4.0726,4.085,4.0895,4.0965,4.1054,4.1058,4.1142,4.1183,4.1272,4.13,4.1427,4.1452,4.1473,4.1478,4.1471,4.1468,4.1505,4.1494,4.1491,4.1489,4.1488,4.1487,0,4.0461,4.0504,4.0647,4.0736,4.076,4.085,4.0925,4.1003,4.1041,4.1154,4.1182,4.1242,4.1347,4.1389,4.1519,4.1537,4.1683,4.1681,4.1655,4.1656,4.1733,4.1724,4.1982,4.2017,4.1818,4.182,4.1821,0,4.0569,4.0656,4.0753,4.0813,4.0862,4.0959,4.1022,4.1056,4.1121,4.1221,4.1287,4.1392,4.1478,4.1647,4.1701,4.18,4.18,4.1883,4.1814,4.1804,4.1798,4.1792,4.1799,4.1895,4.1897,4.1899,4.19,0,4.0757,4.0774,4.0864,4.0963,4.1037,4.1116,4.1193,4.1242,4.1287,4.136,4.1468,4.1535,4.1666,4.177,4.1872,4.192,4.1918,4.1922,4.1945,4.1938,4.1917,4.1927,4.1687,4.1915,4.1914,4.1913,4.1912,4.1911,4.0886,4.0962,4.1042,4.1142,4.1203,4.1274,4.1352,4.1399,4.1489,4.1599,4.1614,4.1728,4.1808,4.1944,4.1996,4.2086,4.2065,4.2099,4.2108,4.2115,4.2119,4.1905,4.2105,4.2105,4.2105,4.2104,4.2104,0,4.1071,4.1122,4.1214,4.1321,4.14,4.1391,4.1475,4.1541,4.1642,4.1716,4.1801,4.1924,4.2024,4.2087,4.2188,4.2248,4.2249,4.2274,4.2268,4.2279,4.2134,4.2102,4.2271,4.2271,4.2271,4.2271,4.227,4.227,4.1177,4.1305,4.1331,4.1489,4.154,4.1652,4.17,4.1766,4.1825,4.1962,4.2045,4.2086,4.2155,4.2261,4.2353,4.2369,4.2405,4.243,4.2444,4.2307,4.2289,4.2273,4.2243,4.2438,4.2439,4.2581,4.2582,4.2583]},{"header":{"parameterUnit":"m.s-1","parameterCategory":1,"la1":30.2991,"la2":30.254,"lo1":-89.0895,"lo2":-89.0444,"dy":0.0017,"dx":0.0017,"nx":28,"ny":28,"refTime":"2025-12-31T09:00:00:Z","depth":0,"parameterNumber":3,"parameterNumberName":"V-component_of_WINDS"},"data":[0,0,0,0,0,0,0,0,0,0,0,0,0,0,0,0,0,0,0,0,0,0,0,0,0,0,0,0,0,0,0,0,0,0,0,0,0,0,0,0,0,0,0,0,0,0,0,0,0,0,0,0,0,0,0,0,0,0,1.0229,1.0229,0,1.0185,1.0184,1.0184,1.0143,1.0142,1.0142,1.0142,1.0095,1.0094,1.0094,0,0,0,0,0,0,0,0,0,0,0,0,0,1.0278,1.0277,1.0229,1.0229,1.0228,1.0185,1.0184,1.0184,1.0143,1.0142,1.0142,1.0141,1.0095,1.0094,1.0094,0,0,0,0,0,0,0,0,0,0,0,0,0,1.0247,1.0277,1.0229,1.0203,1.02,1.0185,1.0184,1.0183,1.0143,1.0142,1.0142,1.0141,1.0096,1.0095,1.0093,1.0101,0,0,1.009,1.0089,0,0,0,0,0,0,0,0,1.0249,1.0246,1.0207,1.0205,1.0201,1.0169,1.0184,1.0156,1.0143,1.0165,1.0141,1.0141,1.012,1.0117,1.011,1.0099,1.0097,1.009,1.0089,1.0089,1.0088,0,0,0,0,0,0,0,1.0251,1.0247,1.0212,1.0207,1.0203,1.0192,1.0187,1.0179,1.0147,1.0163,1.016,1.0155,1.0118,1.0111,1.0109,1.0096,1.009,1.0089,1.0088,1.0088,1.0086,1.0087,0,0,0,0,0,0,1.0258,1.0249,1.0213,1.021,1.0224,1.0192,1.0186,1.018,1.0147,1.0141,1.0156,1.0153,1.0114,1.011,1.0107,1.0112,1.0089,1.0087,1.0087,1.0086,1.0087,1.0087,0,0,0,0,0,0,1.0259,1.0255,1.0215,1.0229,1.0223,1.0192,1.0185,1.0179,1.0172,1.0142,1.0136,1.0154,1.0113,1.0109,1.0102,1.011,1.0087,1.0086,1.0085,1.0086,1.0087,1.0124,0,0,0,0,0,0,1.026,1.0255,1.0259,1.0229,1.0222,1.0212,1.0186,1.0179,1.0171,1.0167,1.0139,1.0134,1.0112,1.0104,1.0101,1.0108,1.0085,1.0084,1.0085,1.0087,1.0122,1.0126,1.013,0,0,0,0,0,1.0262,1.0271,1.0259,1.0255,1.0226,1.0212,1.0208,1.0184,1.0171,1.0174,1.0154,1.0134,1.011,1.0104,1.01,1.0107,1.0083,1.0085,1.0086,1.012,1.0126,1.013,0,0,0,0,0,0,1.0302,1.0267,1.0253,1.0253,1.0236,1.0206,1.0208,1.019,1.0176,1.0173,1.0143,1.0137,1.0134,1.012,1.0114,1.0111,1.0094,1.0095,1.0121,1.0126,1.013,1.0133,1.0084,0,0,0,0,0,1.0311,1.0304,1.0273,1.0276,1.0268,1.0239,1.0233,1.0215,1.0196,1.0189,1.0168,1.015,1.0138,1.0131,1.0119,1.012,1.0112,1.0122,1.0126,1.013,1.0131,1.0129,1.0132,1.0092,1.0092,1.0092,0,0,1.033,1.0309,1.0306,1.0283,1.0268,1.026,1.0234,1.0227,1.0221,1.0188,1.018,1.0164,1.0142,1.0139,1.0137,1.0127,1.014,1.0132,1.0134,1.0134,1.0131,1.0134,1.0138,1.0093,1.0093,1.0093,0,0,1.0359,1.0343,1.0343,1.0328,1.0305,1.0286,1.0286,1.0257,1.0246,1.0238,1.0212,1.0204,1.0184,1.0169,1.0159,1.018,1.0161,1.0177,1.0198,1.0196,1.0199,1.0202,1.0208,1.0211,1.0178,1.0178,1.0178,0,1.0384,1.0372,1.0345,1.0339,1.0329,1.0299,1.0298,1.0284,1.0259,1.0252,1.0241,1.0215,1.0198,1.019,1.0195,1.0188,1.0187,1.018,1.0201,1.0203,1.0205,1.0211,1.0214,1.018,1.018,1.018,1.0179,0,1.0404,1.0396,1.0398,1.0374,1.0364,1.0361,1.0332,1.0326,1.0308,1.029,1.0281,1.0259,1.0241,1.0238,1.0221,1.0227,1.0222,1.0207,1.0188,1.0212,1.0217,1.0219,1.0183,1.0182,1.0182,1.0181,0,0,1.0458,1.0418,1.0419,1.0407,1.0379,1.0371,1.0366,1.0348,1.0342,1.0325,1.0319,1.0302,1.0287,1.0276,1.0257,1.0255,1.0272,1.024,1.0239,1.0246,1.0276,1.0288,1.0291,1.0259,1.026,1.026,1.0278,0,1.0482,1.0472,1.0447,1.0443,1.0435,1.0404,1.0399,1.0381,1.0363,1.0352,1.0332,1.0321,1.0302,1.0295,1.0292,1.0271,1.0278,1.0269,1.0253,1.0252,1.0259,1.0294,1.0307,1.0325,1.028,1.028,1.028,0,1.051,1.0494,1.049,1.046,1.0456,1.0452,1.0433,1.0423,1.0401,1.0388,1.0374,1.0352,1.0344,1.0327,1.0314,1.0309,1.03,1.0289,1.0289,1.0286,1.0268,1.0292,1.033,1.0333,1.0283,1.0283,1.0283,0,1.0549,1.0527,1.0521,1.0511,1.0477,1.0475,1.0461,1.0438,1.0428,1.0411,1.0404,1.0386,1.0376,1.0362,1.0336,1.0326,1.0325,1.0306,1.0313,1.0314,1.0315,1.0315,1.0352,1.031,1.031,1.031,1.031,0,1.0579,1.0577,1.0538,1.0535,1.0531,1.0502,1.0499,1.0482,1.0461,1.0453,1.0425,1.0418,1.0384,1.0372,1.0352,1.0343,1.0339,1.0328,1.0322,1.033,1.0332,1.0324,1.0322,1.0311,1.0311,1.031,1.031,0,1.0622,1.0596,1.0588,1.0556,1.0547,1.0547,1.0519,1.0513,1.0493,1.0483,1.0479,1.0447,1.0432,1.0404,1.0381,1.0367,1.0363,1.0353,1.0371,1.0367,1.0375,1.0375,1.0408,1.0411,1.0368,1.0369,1.0369,0,1.0643,1.0641,1.0608,1.0601,1.0588,1.0576,1.0566,1.0536,1.0526,1.0499,1.0497,1.048,1.0464,1.0441,1.0415,1.0397,1.0387,1.04,1.0384,1.0391,1.0386,1.0386,1.0385,1.0403,1.0404,1.0405,1.0405,0,1.0682,1.0669,1.0655,1.0637,1.0625,1.0609,1.0591,1.0587,1.0552,1.0543,1.0527,1.0515,1.049,1.0473,1.045,1.0434,1.0414,1.041,1.041,1.0419,1.0428,1.0422,1.038,1.0409,1.0409,1.0409,1.0408,1.0408,1.0714,1.0711,1.0687,1.0672,1.0656,1.0639,1.0633,1.0611,1.0598,1.0576,1.0558,1.0543,1.0519,1.0487,1.0472,1.0459,1.045,1.0451,1.0451,1.0451,1.0454,1.043,1.0455,1.0455,1.0455,1.0455,1.0454,0,1.0752,1.0734,1.0721,1.0697,1.0685,1.0667,1.0646,1.0637,1.0624,1.0603,1.0588,1.0569,1.0551,1.0524,1.0504,1.0498,1.0488,1.0494,1.0494,1.049,1.0464,1.0466,1.0503,1.0503,1.0503,1.0503,1.0503,1.0503,1.077,1.0762,1.0746,1.0729,1.0711,1.0697,1.0686,1.067,1.0654,1.0634,1.0619,1.0601,1.0577,1.0555,1.0537,1.0529,1.0523,1.0532,1.0521,1.0497,1.0493,1.0488,1.0489,1.0531,1.0531,1.0548,1.0548,1.0548]}]]